SCP
1 1 1 1 1 1 1 1 1 1 1 1 1 1 1 0 0 0 0 0 0 0 0 0 0 0 0 0 0 0 0 0 0 0 0 0 0 0 0 0 0 0 0
1 1 1 1 1 1 1 1 1 1 1 1 1 1 1 0 0 0 0 0 0 0 0 0 0 0 0 0 0 0 0 0 0 0 0 0 0 0 0 0 0 0 0
1 1 1 1 1 1 1 1 1 1 1 1 1 1 1 0 0 0 0 0 0 0 0 0 0 0 0 0 0 0 0 0 0 0 0 0 0 0 0 0 0 0 0
1 1 1 1 1 1 1 1 1 1 1 1 1 1 1 0 0 0 0 0 0 0 0 0 0 0 0 0 0 0 0 0 0 0 0 0 0 0 0 0 0 0 0
1 1 1 1 1 1 1 1 1 1 1 1 1 1 1 0 0 0 0 0 0 0 0 0 0 0 0 0 0 0 0 0 0 0 0 0 0 0 0 0 0 0 0
1 1 1 1 1 1 1 1 1 1 1 1 1 1 1 1 0 0 0 0 0 0 0 0 0 0 0 0 0 0 0 0 0 0 0 0 0 0 0 0 0 0 0
1 1 1 1 1 1 1 1 1 1 1 1 1 1 1 1 1 0 0 0 0 0 0 0 0 0 0 0 0 0 0 0 0 0 0 0 0 0 0 0 0 0 0
1 1 1 1 1 1 1 1 1 1 1 1 1 1 1 1 1 0 0 0 0 0 0 0 0 0 0 0 0 0 0 0 0 0 0 0 0 0 0 0 0 0 0
1 1 1 1 1 1 1 1 1 1 1 1 1 1 1 1 1 1 0 0 0 0 0 0 0 0 0 0 0 0 0 0 0 0 0 0 0 0 0 0 0 0 0
0 1 1 1 1 1 1 1 1 1 1 1 1 1 1 1 1 1 1 0 0 0 0 0 0 0 0 0 1 0 0 0 0 0 0 0 0 0 0 0 0 0 0
1 1 1 1 1 1 1 1 1 1 1 1 1 1 1 1 1 1 1 1 0 0 0 0 0 0 1 1 1 1 0 0 0 0 0 0 0 0 0 0 0 0 0
1 1 1 1 1 1 1 1 1 1 1 1 1 1 1 1 1 1 1 1 1 0 0 0 0 0 0 1 1 1 1 0 0 0 0 0 0 0 0 0 0 0 0
1 1 1 1 1 1 1 1 1 1 1 1 1 1 1 1 1 1 1 1 1 1 0 0 0 0 0 1 1 1 1 1 0 0 0 0 0 0 0 0 0 0 0
1 1 1 1 1 1 1 1 1 1 1 1 1 1 1 1 1 1 1 1 1 1 1 1 1 1 1 1 1 1 1 1 0 0 0 0 0 0 0 0 0 0 0
1 1 1 1 1 1 1 1 1 1 1 1 1 1 1 1 1 1 1 1 1 1 1 1 1 1 1 0 0 0 1 1 0 0 0 0 0 0 0 0 0 0 0
1 1 1 1 1 1 1 1 1 1 1 1 1 1 1 1 1 1 1 1 1 1 1 1 1 1 0 0 0 0 0 0 0 0 0 0 0 0 0 0 0 0 0
1 1 1 1 1 1 1 1 1 1 1 1 1 1 1 1 1 1 1 1 1 1 1 1 1 1 0 0 0 0 0 0 0 0 0 0 0 0 0 0 0 0 0
1 1 1 1 1 1 1 1 1 1 1 1 1 1 1 1 1 1 1 1 1 1 1 1 1 1 0 0 0 0 0 0 0 0 0 0 0 0 0 0 0 0 0
1 1 1 1 1 1 1 1 1 1 1 1 1 1 1 1 1 1 1 1 1 1 1 1 1 1 0 0 0 0 0 0 0 1 0 0 0 0 0 0 0 0 0
1 1 1 1 1 1 0 0 0 0 1 1 1 1 1 1 1 1 1 1 1 1 1 1 1 1 0 0 0 0 0 0 0 1 1 0 0 0 0 0 0 0 0
1 1 1 1 1 1 0 0 0 0 0 1 1 1 1 1 1 1 1 1 1 1 1 1 1 1 0 0 0 0 0 0 0 0 0 0 0 0 0 0 0 0 0
1 1 1 1 1 1 1 1 0 0 0 1 1 1 1 1 1 1 1 1 1 1 1 1 1 0 0 0 0 0 0 0 0 0 0 0 0 0 0 0 0 0 0
1 1 1 1 1 1 1 1 1 1 1 1 1 1 1 1 1 1 1 1 1 1 1 1 1 0 0 0 0 0 0 0 0 0 0 0 0 0 0 0 0 0 0
0 0 0 1 1 1 1 1 1 1 1 1 1 1 1 1 1 1 1 1 1 1 1 1 1 1 1 0 0 0 0 0 0 0 0 0 0 0 0 0 0 0 0
1 0 0 1 1 1 1 1 1 1 1 1 1 1 1 1 1 1 0 0 0 0 0 1 1 1 0 0 0 0 0 0 0 0 0 0 0 0 0 0 0 0 0
1 1 0 1 1 1 1 1 1 1 1 1 1 1 1 1 1 0 0 0 0 0 0 0 0 0 0 0 0 0 0 0 0 0 0 0 0 0 0 0 0 0 0
Wind_Speed
15 15 15 15 15 14 15 15 15 14 11 9 9 8 8 7 6 6 7 8 7 7 5 4 5 5 4 4 4 4 4 3 2 2 3 3 3 3 3 3 3 4 4
15 15 15 15 16 16 15 15 15 15 13 10 8 7 7 7 6 6 7 8 8 7 7 5 5 5 4 4 4 4 3 3 3 3 3 3 4 4 4 4 4 3 4
16 16 17 17 16 16 16 14 15 14 14 12 8 7 6 6 7 8 7 9 9 8 7 7 5 5 6 5 5 5 6 3 3 3 3 2 2 3 4 4 3 3 3
15 16 17 17 16 16 15 15 15 14 14 13 12 12 10 9 9 8 8 8 9 9 8 7 6 5 5 4 6 6 4 4 4 3 3 3 3 2 3 5 5 5 5
15 15 16 16 16 15 14 14 14 14 14 14 14 13 11 9 7 8 9 9 8 9 9 8 7 6 5 5 4 4 5 4 4 4 4 3 3 4 3 2 3 4 5
14 14 14 14 14 14 14 13 14 14 14 14 14 14 13 11 10 10 9 9 7 7 9 9 7 7 5 5 5 5 6 5 4 4 4 4 4 4 3 3 3 3 3
13 13 14 14 14 15 14 13 14 14 14 15 14 14 13 12 12 10 9 9 8 7 9 9 8 7 6 6 6 6 5 6 5 6 5 4 4 3 3 4 3 2 2
13 13 14 14 14 15 15 14 14 14 14 14 14 13 13 10 9 11 9 9 7 7 8 9 8 8 8 7 6 6 6 5 6 7 5 4 4 4 4 4 4 4 4
13 13 13 13 14 14 15 15 14 13 14 14 14 13 13 12 10 10 10 8 7 7 9 9 9 9 9 8 7 6 6 6 7 7 7 6 4 5 4 4 4 5 5
12 13 13 13 12 12 12 13 13 13 13 13 13 11 12 12 11 10 10 9 9 9 9 9 10 10 9 9 8 7 7 7 7 5 5 5 6 4 5 4 4 5 6
12 12 11 11 11 11 11 12 12 12 12 12 12 12 12 12 11 10 10 10 9 10 10 10 10 10 10 9 9 9 8 9 8 7 7 7 6 5 5 5 5 5 5
11 11 11 10 10 10 10 11 11 11 12 11 11 11 11 11 11 11 11 10 10 10 10 10 10 10 10 9 10 10 9 9 9 8 7 7 6 6 6 4 5 5 4
10 10 10 9 9 10 10 10 11 11 11 11 11 11 12 12 11 11 11 10 11 11 10 10 10 10 10 10 9 9 9 9 9 8 8 8 7 7 6 6 6 5 5
10 10 9 9 8 9 9 9 10 9 10 10 11 11 11 11 11 11 10 10 11 11 11 11 11 10 10 10 10 10 9 9 9 8 8 8 8 8 7 6 6 5 5
10 10 9 9 9 8 8 9 9 9 9 9 10 10 10 10 10 10 10 10 11 11 11 11 11 11 10 10 11 10 10 9 9 8 8 8 7 5 5 5 6 6 6
10 9 9 9 8 8 8 8 8 8 9 9 9 9 9 10 10 10 10 10 11 10 10 11 11 11 9 9 10 10 10 9 10 9 9 8 9 9 8 7 6 6 7
8 8 8 8 7 7 7 7 8 8 8 9 9 9 9 9 10 10 10 11 10 10 10 10 10 11 10 10 12 12 9 9 9 9 8 8 8 9 10 10 10 9 9
8 8 7 7 6 6 6 6 7 8 8 8 9 9 9 9 9 10 10 10 9 9 10 10 11 10 10 12 13 12 12 10 10 10 10 9 8 8 8 8 9 9 9
6 6 6 6 6 6 6 6 7 8 8 8 9 9 9 9 10 10 10 9 9 10 10 10 11 11 10 12 14 13 11 9 10 9 9 8 8 6 6 8 9 8 7
5 5 5 5 5 4 5 6 7 7 8 8 8 8 9 9 9 9 9 9 9 9 9 9 10 10 10 11 14 14 9 8 7 7 7 7 6 5 7 8 8 8 6
6 5 5 4 3 4 5 6 6 7 6 7 7 8 8 9 9 9 8 8 8 9 9 8 8 8 8 10 13 13 8 7 6 5 5 4 8 6 7 7 6 4 4
6 5 5 4 2 3 4 5 5 5 5 6 6 7 8 8 7 7 7 7 7 8 8 7 6 5 5 6 9 11 10 6 5 4 3 3 9 7 6 5 3 3 3
5 4 4 4 3 2 2 3 3 3 4 5 5 5 6 6 5 6 6 6 6 6 6 6 6 5 5 5 8 9 9 6 4 2 3 4 8 7 5 5 4 4 4
4 4 4 4 3 2 1 1 1 2 4 5 5 5 5 5 4 3 3 4 4 5 5 5 4 4 4 3 5 6 6 7 6 4 5 7 6 4 2 3 4 3 2
4 4 4 4 4 3 3 2 1 2 3 4 4 4 4 5 4 4 3 2 2 1 1 2 2 3 3 2 4 3 4 4 4 5 4 3 3 3 3 2 1 1 2
5 5 5 5 5 4 4 3 2 2 3 4 4 3 4 5 5 6 6 12 10 12 11 9 6 5 7 9 9 8 6 6 6 4 3 2 2 2 1 1 1 1 1
Wind_Direction
185 182 183 184 185 186 186 186 186 183 183 188 191 188 187 190 191 191 182 187 188 183 205 197 178 214 201 205 200 206 189 193 187 194 178 173 175 173 172 191 181 169 172
181 181 183 186 188 189 190 189 190 187 189 192 195 193 189 192 191 192 184 195 192 190 196 207 200 199 197 204 211 213 223 195 191 226 212 192 174 191 181 177 189 185 182
186 184 186 190 191 191 191 192 192 191 194 192 190 187 186 195 190 192 191 199 197 197 206 198 212 200 212 199 211 209 216 215 199 230 260 247 197 169 168 194 190 192 204
189 188 188 191 192 191 190 192 192 193 193 192 196 192 196 197 197 194 189 192 198 200 201 204 205 210 218 199 213 203 214 217 215 197 242 295 344 272 175 186 183 195 208
190 189 190 190 191 189 188 189 190 194 195 197 199 201 203 201 195 194 190 196 195 202 204 202 201 206 216 212 225 197 224 220 225 222 214 217 219 248 259 213 191 197 203
190 189 188 186 186 184 185 185 188 193 196 200 202 205 203 200 197 197 193 197 195 200 202 204 202 206 212 207 212 213 214 235 234 243 237 234 236 237 243 244 225 212 203
187 186 186 184 182 182 184 186 188 192 195 199 203 203 203 202 202 202 201 203 200 198 198 204 203 206 207 210 209 211 226 219 220 231 237 242 252 256 255 261 259 248 212
186 187 186 184 184 183 185 187 191 193 194 198 201 200 200 204 204 206 207 206 211 204 193 200 203 205 206 207 205 217 214 215 222 230 240 247 243 246 248 258 267 257 237
185 185 184 183 183 183 185 187 189 192 194 197 198 198 201 206 205 202 208 209 210 206 197 198 201 205 205 206 206 217 217 214 221 222 213 234 236 239 245 252 263 273 274
183 182 182 180 179 179 180 183 188 191 192 195 198 198 200 203 204 206 207 209 206 205 201 204 204 205 205 206 210 211 209 215 221 233 236 237 242 232 236 243 250 262 277
178 176 176 174 172 176 178 182 186 190 192 196 198 200 200 200 202 205 206 208 207 204 205 206 208 207 207 207 208 217 207 215 217 219 220 224 244 241 235 230 238 246 257
167 167 166 165 168 175 179 182 187 190 192 192 196 199 200 199 202 205 207 207 207 208 209 209 210 210 208 207 209 214 211 213 215 217 221 223 216 221 245 240 240 245 257
159 157 158 162 168 173 179 181 185 189 189 189 196 198 199 201 204 204 205 207 207 209 209 208 211 212 210 208 210 213 214 215 217 218 219 219 217 219 224 234 241 240 234
158 158 156 161 166 170 176 179 183 185 186 189 196 200 201 202 203 204 204 207 207 207 208 209 211 211 211 210 210 209 212 215 216 216 218 219 218 218 220 222 232 243 248
162 163 162 164 167 169 174 178 181 182 183 189 198 202 203 203 203 204 205 206 208 209 209 210 211 211 211 212 209 209 208 210 214 215 216 217 217 225 231 241 228 228 239
162 162 164 164 167 170 176 179 183 183 186 193 199 201 202 202 203 204 204 204 207 210 210 210 211 212 214 195 197 211 210 209 213 214 215 213 206 210 217 241 252 254 247
160 161 162 164 167 170 175 182 184 185 192 199 201 201 203 205 204 202 202 204 204 204 207 209 210 215 211 189 190 204 218 217 216 215 214 223 211 203 217 212 218 231 238
161 160 161 159 165 169 176 184 184 190 196 201 203 202 204 205 204 205 204 205 205 205 206 209 211 213 207 188 191 196 215 223 221 219 217 222 222 216 222 226 226 229 223
154 153 154 152 156 169 178 185 191 194 199 203 205 203 203 203 205 207 206 206 205 208 209 210 211 212 204 186 187 194 214 218 220 220 218 219 219 199 199 227 233 235 235
137 138 140 144 155 170 182 193 196 198 203 205 206 204 203 204 206 208 208 206 206 208 210 211 212 213 210 186 187 198 217 214 213 210 211 208 219 183 185 221 231 235 241
125 125 129 138 153 170 182 196 199 205 209 206 202 202 203 206 207 207 207 207 207 206 210 209 208 209 208 184 186 195 219 215 210 211 209 193 171 180 190 218 231 238 258
115 119 120 118 130 156 182 193 200 205 205 202 201 200 201 206 202 202 204 204 203 197 198 200 202 197 191 186 179 184 203 223 216 212 203 149 146 161 179 201 215 213 233
106 111 112 108 104 121 167 192 201 202 198 193 192 189 189 194 193 189 191 193 195 199 190 191 192 184 177 161 153 169 185 196 205 191 123 123 144 157 165 188 196 198 212
92 99 101 96 84 80 97 137 179 186 181 182 180 177 178 176 170 173 181 184 185 195 192 189 185 173 164 161 157 164 168 170 176 172 142 140 140 154 158 161 177 195 220
83 87 89 84 76 69 59 50 81 154 166 167 165 166 165 154 131 108 65 97 80 68 152 162 143 140 141 120 111 143 158 163 156 154 157 159 156 160 165 169 175 197 202
78 78 76 73 67 63 61 55 70 119 139 140 142 148 143 134 130 120 97 60 61 63 63 59 74 83 88 97 100 98 95 101 117 130 141 142 144 151 157 165 174 180 200